This demonstration page uses our WeatherBlox Daily Observations layout. Learn more.

Left ArrowRight Arrow

38.88101, -77.10428

Hourly Observations for February 25, 2021

Temp ( °F °C ) Dew Point ( °F °C ) Humidity (%) Winds ( mph kmh ) Pressure ( in mb ) Visibility ( mi km ) Precip ( " mm )
12:52 am 00:52 Partly Cloudy 58 14.4 42 5.6 56 56 NW 12 19 29.89 1012 10 16 0.00 0.00
1:52 am 01:52 Mostly Cloudy 57 13.9 37 2.8 47 47 WNW 20 31 29.93 1014 10 16 0.00 0.00
2:52 am 02:52 Partly Cloudy 55 12.8 34 1.1 45 45 NW 16 26 29.96 1015 10 16 0.00 0.00
3:52 am 03:52 Mostly Clear 50 10 33 0.6 52 52 NNW 26 43 29.99 1016 10 16 0.00 0.00
4:52 am 04:52 Mostly Clear 48 8.9 30 -1.1 50 50 NNW 20 31 30.04 1017 10 16 0.00 0.00
5:52 am 05:52 Mostly Clear 47 8.3 29 -1.7 50 50 NW 21 33 30.08 1019 10 16 0.00 0.00
6:52 am 06:52 Mostly Sunny 45 7.2 29 -1.7 54 54 NNW 8 13 30.11 1020 10 16 0.00 0.00
7:52 am 07:52 Mostly Sunny 46 7.8 29 -1.7 51 51 NNW 14 22 30.15 1021 10 16 0.00 0.00
8:52 am 08:52 Sunny 48 8.9 29 -1.7 48 48 NNW 17 28 30.19 1023 10 16 0.00 0.00
9:52 am 09:52 Sunny 49 9.4 28 -2.2 44 44 NW 16 26 30.21 1023 10 16 0.00 0.00
10:52 am 10:52 Sunny 49 9.4 25 -3.9 39 39 NW 12 19 30.23 1024 10 16 0.00 0.00
11:52 am 11:52 Sunny 51 10.6 24 -4.4 35 35 NW 8 13 30.24 1024 10 16 0.00 0.00
12:52 pm 12:52 Sunny 52 11.1 22 -5.6 31 31 N 8 13 30.22 1023 10 16 0.00 0.00
1:52 pm 13:52 Sunny 54 12.2 20 -6.7 26 26 NW 12 19 30.21 1023 10 16 0.00 0.00
2:52 pm 14:52 Sunny 54 12.2 19 -7.2 25 25 NNW 6 9 30.20 1023 10 16 0.00 0.00
3:52 pm 15:52 Sunny 54 12.2 17 -8.3 23 23 NW 6 9 30.22 1023 10 16 0.00 0.00
4:52 pm 16:52 Sunny 53 11.7 18 -7.8 25 25 NNE 7 11 30.22 1023 10 16 0.00 0.00
5:52 pm 17:52 Sunny 50 10 19 -7.2 29 29 N 7 11 30.23 1024 10 16 0.00 0.00
6:52 pm 18:52 Clear 49 9.4 23 -5 36 36 E 3 6 30.26 1025 10 16 0.00 0.00
7:52 pm 19:52 Clear 46 7.8 25 -3.9 44 44 E 3 6 30.27 1025 10 16 0.00 0.00
8:52 pm 20:52 Clear 47 8.3 18 -7.8 31 31 Calm 30.28 1026 10 16 0.00 0.00
9:52 pm 21:52 Clear 44 6.7 26 -3.3 49 49 Calm 30.30 1026 10 16 0.00 0.00
10:52 pm 22:52 Partly Cloudy 40 4.4 31 -0.6 70 70 Calm 30.31 1027 10 16 0.00 0.00
11:52 pm 23:52 Cloudy 41 5 26 -3.3 55 55 SSW 5 7 30.32 1027 10 16 0.00 0.00

Powered by AerisWeather